Home > Time Zones > World Clock > Weather > China > Sian > Past weeks

Flag for China Weather past 2 weeks in Sian, Shaanxi, China

Now
84 °F

Passing clouds.


Feels Like: 87 °F
Forecast: 65 / 90 °F
Wind: 6 mph from West

Location: Xian/Xianyang

Current Time: Sep 5, 2015 at 12:34:17 PM

Latest Report: Sep 5, 2015 at 12:00 PM


Visibility: N/A

Pressure: 29.86 "Hg

Humidity: 58%

Dew point: 68 °F

Location of SianLocation

Historic Weather in Sian — Graph

°F

Sian temperature yesterday

Maximum temperature yesterday: 82 °F (at 5:00 PM)
Minimum temperature yesterday: 66 °F (at 12:00 AM)
Average temperature yesterday: 72 °F

Past Weeks' High & Low Weather Summary

 TemperatureHumidityPressure
High95 °F (Aug 22, 5:00 PM)100% (Sep 4, 6:00 AM)29.98 "Hg (Sep 4, 6:00 AM)
Low59 °F (Aug 22, 6:00 AM)26% (Aug 21, 3:00 PM)29.65 "Hg (Aug 22, 4:00 PM)
Average75 °F66%29.84 "Hg
* Reported Aug 21 11:00 AM — Sep 5 11:00 AM, Sian, Weather by CustomWeather, © 2015

Note: Actual official high and low records may vary slightly from our data, if they occured in-between our weather recording intervals... More about our weather records

Advertising

Sian weather history for previous 24 hours

 ConditionsComfort  
Time TempWeatherWind HumidityBarometerVisibility
11:00 AM
Sat, Sep 5
82 °FPassing clouds.3 mph62%29.89 "HgN/A
10:00 AM81 °FClear.6 mph70%29.89 "Hg4 mi
9:00 AM72 °FFog.6 mph88%29.89 "Hg2 mi
8:00 AM70 °FFog.6 mph94%29.89 "Hg1 mi
7:00 AM68 °FFog.6 mph100%29.89 "Hg1 mi
6:00 AM66 °FFog.1 mph94%29.86 "Hg1 mi
5:00 AM64 °FFog.1 mph100%29.86 "Hg1 mi
4:00 AM66 °FFog.3 mph94%29.86 "Hg1 mi
3:00 AM66 °FFog.1 mph94%29.86 "Hg1 mi
2:00 AM68 °FFog.No wind94%29.89 "Hg1 mi
1:00 AM68 °FFog.1 mph94%29.89 "Hg2 mi
12:00 AM70 °FFog.3 mph94%29.89 "Hg2 mi
11:00 PM
Fri, Sep 4
70 °FFog.3 mph94%29.89 "Hg3 mi
10:00 PM72 °FClear.3 mph88%29.89 "Hg4 mi
9:00 PM73 °FClear.3 mph83%29.89 "Hg4 mi
8:00 PM73 °FPassing clouds.3 mph83%29.86 "HgN/A
7:00 PM79 °FSunny.1 mph65%29.83 "Hg10 mi
6:00 PM81 °FSunny.3 mph62%29.83 "Hg10 mi
5:00 PM82 °FPassing clouds.6 mph58%29.83 "HgN/A
4:00 PM81 °FScattered clouds.3 mph62%29.83 "HgN/A
3:00 PM81 °FScattered clouds.6 mph66%29.83 "HgN/A
2:00 PM81 °FScattered clouds.3 mph62%29.86 "HgN/A
1:00 PM77 °FScattered clouds.3 mph69%29.86 "HgN/A
12:00 PM73 °FBroken clouds.3 mph78%29.89 "Hg5 mi
Weather by CustomWeather, © 2015

See weather overviewHow to use our weather pages